TimeCDT,TemperatureF,Dew PointF,Humidity,Sea Level PressureIn,VisibilityMPH,Wind Direction,Wind SpeedMPH,Gust SpeedMPH,PrecipitationIn,Events,Conditions,WindDirDegrees,DateUTC
12:15 AM,62.6,57.2,82,30.03,10.0,SE,6.9,-,N/A,,Clear,130,2013-07-05 05:15:00
12:35 AM,62.6,57.2,82,30.03,10.0,ESE,6.9,-,N/A,,Clear,120,2013-07-05 05:35:00
12:55 AM,62.6,57.2,82,30.03,10.0,SE,5.8,-,N/A,,Clear,130,2013-07-05 05:55:00
1:15 AM,62.6,57.2,82,30.02,10.0,SE,5.8,-,N/A,,Clear,130,2013-07-05 06:15:00
1:35 AM,62.6,55.4,77,30.02,10.0,ESE,5.8,-,N/A,,Clear,120,2013-07-05 06:35:00
1:55 AM,60.8,55.4,82,30.02,10.0,SE,5.8,-,N/A,,Clear,130,2013-07-05 06:55:00
2:15 AM,60.8,55.4,82,30.01,10.0,SE,5.8,-,N/A,,Clear,130,2013-07-05 07:15:00
2:35 AM,62.6,55.4,77,30.02,10.0,SE,5.8,-,N/A,,Clear,130,2013-07-05 07:35:00
2:55 AM,62.6,55.4,77,30.01,10.0,ESE,6.9,-,N/A,,Clear,120,2013-07-05 07:55:00
3:15 AM,60.8,55.4,82,30.02,10.0,SE,5.8,-,N/A,,Clear,130,2013-07-05 08:15:00
3:35 AM,60.8,55.4,82,30.02,10.0,ESE,6.9,-,N/A,,Clear,120,2013-07-05 08:35:00
3:55 AM,60.8,55.4,82,30.02,10.0,ESE,6.9,-,N/A,,Clear,120,2013-07-05 08:55:00
4:15 AM,60.8,55.4,82,30.02,10.0,ESE,8.1,-,N/A,,Clear,120,2013-07-05 09:15:00
4:35 AM,60.8,55.4,82,30.02,10.0,SE,6.9,-,N/A,,Clear,130,2013-07-05 09:35:00
4:55 AM,60.8,55.4,82,30.02,10.0,ESE,8.1,-,N/A,,Clear,120,2013-07-05 09:55:00
5:15 AM,60.8,55.4,82,30.03,10.0,ESE,8.1,-,N/A,,Clear,120,2013-07-05 10:15:00
5:35 AM,60.8,55.4,82,30.03,10.0,SE,6.9,-,N/A,,Clear,130,2013-07-05 10:35:00
5:55 AM,60.8,55.4,82,30.03,10.0,ESE,8.1,-,N/A,,Clear,120,2013-07-05 10:55:00
6:15 AM,59.0,55.4,88,30.03,10.0,SE,8.1,-,N/A,,Clear,130,2013-07-05 11:15:00
6:35 AM,60.8,55.4,82,30.04,10.0,SE,5.8,-,N/A,,Clear,140,2013-07-05 11:35:00
6:55 AM,62.6,55.4,77,30.04,10.0,SE,5.8,-,N/A,,Clear,140,2013-07-05 11:55:00
7:15 AM,62.6,57.2,82,30.04,10.0,SE,4.6,-,N/A,,Clear,140,2013-07-05 12:15:00
7:35 AM,66.2,59.0,78,30.05,10.0,SSE,5.8,-,N/A,,Clear,150,2013-07-05 12:35:00
7:55 AM,68.0,59.0,73,30.06,10.0,SSE,5.8,-,N/A,,Clear,150,2013-07-05 12:55:00
8:15 AM,69.8,59.0,68,30.06,10.0,SE,5.8,-,N/A,,Clear,140,2013-07-05 13:15:00
8:35 AM,71.6,60.8,69,30.06,10.0,SSE,6.9,-,N/A,,Clear,160,2013-07-05 13:35:00
8:55 AM,73.4,59.0,61,30.07,10.0,South,5.8,-,N/A,,Clear,180,2013-07-05 13:55:00
9:15 AM,75.2,60.8,61,30.07,10.0,South,9.2,-,N/A,,Clear,180,2013-07-05 14:15:00
9:35 AM,77.0,60.8,57,30.06,10.0,South,8.1,-,N/A,,Clear,180,2013-07-05 14:35:00
9:55 AM,78.8,60.8,54,30.06,10.0,SSW,6.9,-,N/A,,Clear,200,2013-07-05 14:55:00
10:15 AM,78.8,59.0,51,30.06,10.0,SSW,8.1,-,N/A,,Clear,210,2013-07-05 15:15:00
10:35 AM,80.6,59.0,48,30.05,10.0,SSW,8.1,-,N/A,,Clear,200,2013-07-05 15:35:00
10:55 AM,80.6,57.2,45,30.05,10.0,South,9.2,-,N/A,,Clear,190,2013-07-05 15:55:00
11:15 AM,82.4,57.2,42,30.05,10.0,South,9.2,-,N/A,,Clear,190,2013-07-05 16:15:00
11:35 AM,82.4,59.0,45,30.05,10.0,SSW,10.4,-,N/A,,Clear,200,2013-07-05 16:35:00
11:55 AM,82.4,59.0,45,30.05,10.0,South,9.2,-,N/A,,Clear,180,2013-07-05 16:55:00
12:15 PM,82.4,59.0,45,30.05,10.0,South,8.1,-,N/A,,Clear,190,2013-07-05 17:15:00
12:35 PM,84.2,55.4,37,30.05,10.0,SSW,9.2,-,N/A,,Clear,200,2013-07-05 17:35:00
12:55 PM,84.2,55.4,37,30.05,10.0,SSW,5.8,-,N/A,,Clear,210,2013-07-05 17:55:00
1:15 PM,84.2,55.4,37,30.04,10.0,South,5.8,-,N/A,,Scattered Clouds,190,2013-07-05 18:15:00
1:35 PM,86.0,55.4,35,30.04,10.0,SSW,4.6,10.4,N/A,,Scattered Clouds,210,2013-07-05 18:35:00
1:55 PM,86.0,55.4,35,30.03,10.0,WSW,8.1,-,N/A,,Clear,240,2013-07-05 18:55:00
2:15 PM,86.0,57.2,37,30.03,10.0,South,5.8,-,N/A,,Scattered Clouds,170,2013-07-05 19:15:00
2:35 PM,86.0,53.6,33,30.02,10.0,SSW,6.9,-,N/A,,Scattered Clouds,200,2013-07-05 19:35:00
2:55 PM,86.0,55.4,35,30.01,10.0,South,9.2,-,N/A,,Clear,180,2013-07-05 19:55:00
3:15 PM,86.0,55.4,35,30.01,10.0,SSE,5.8,-,N/A,,Clear,160,2013-07-05 20:15:00
3:35 PM,86.0,55.4,35,30.00,10.0,SSW,6.9,-,N/A,,Clear,200,2013-07-05 20:35:00
3:55 PM,87.8,53.6,31,30.00,10.0,South,5.8,-,N/A,,Clear,180,2013-07-05 20:55:00
4:15 PM,87.8,57.2,35,30.00,10.0,South,6.9,-,N/A,,Clear,170,2013-07-05 21:15:00
4:35 PM,87.8,55.4,33,29.99,10.0,SSW,9.2,-,N/A,,Clear,210,2013-07-05 21:35:00
4:55 PM,87.8,55.4,33,29.99,10.0,SSE,8.1,-,N/A,,Clear,160,2013-07-05 21:55:00
5:15 PM,86.0,55.4,35,29.98,10.0,South,9.2,-,N/A,,Clear,190,2013-07-05 22:15:00
5:35 PM,86.0,55.4,35,29.97,10.0,South,6.9,-,N/A,,Clear,170,2013-07-05 22:35:00
5:55 PM,86.0,55.4,35,29.97,10.0,SSW,8.1,-,N/A,,Clear,200,2013-07-05 22:55:00
6:15 PM,86.0,55.4,35,29.96,10.0,South,5.8,-,N/A,,Clear,190,2013-07-05 23:15:00
6:35 PM,86.0,57.2,37,29.96,10.0,SSW,8.1,-,N/A,,Clear,200,2013-07-05 23:35:00
6:55 PM,84.2,59.0,42,29.96,10.0,SSW,4.6,-,N/A,,Clear,200,2013-07-05 23:55:00
7:15 PM,82.4,59.0,45,29.96,10.0,South,4.6,-,N/A,,Clear,170,2013-07-06 00:15:00
7:35 PM,80.6,60.8,51,29.96,10.0,ESE,3.5,-,N/A,,Clear,120,2013-07-06 00:35:00
7:55 PM,78.8,59.0,51,29.96,10.0,ESE,6.9,-,N/A,,Clear,110,2013-07-06 00:55:00
8:15 PM,77.0,60.8,57,29.96,10.0,ESE,6.9,-,N/A,,Clear,110,2013-07-06 01:15:00
8:35 PM,77.0,60.8,57,29.96,10.0,ESE,6.9,-,N/A,,Clear,110,2013-07-06 01:35:00
8:55 PM,73.4,60.8,65,29.96,10.0,ESE,6.9,-,N/A,,Clear,120,2013-07-06 01:55:00
9:15 PM,73.4,59.0,61,29.96,10.0,SE,5.8,-,N/A,,Clear,130,2013-07-06 02:15:00
9:35 PM,71.6,59.0,64,29.97,10.0,ESE,8.1,-,N/A,,Clear,110,2013-07-06 02:35:00
9:55 PM,71.6,59.0,64,29.97,10.0,ESE,8.1,-,N/A,,Clear,110,2013-07-06 02:55:00
10:15 PM,71.6,57.2,60,29.98,10.0,SE,6.9,-,N/A,,Clear,130,2013-07-06 03:15:00
10:35 PM,69.8,57.2,64,29.99,10.0,SE,6.9,-,N/A,,Clear,130,2013-07-06 03:35:00
10:55 PM,69.8,57.2,64,29.99,10.0,SE,6.9,-,N/A,,Clear,130,2013-07-06 03:55:00
11:15 PM,69.8,57.2,64,30.00,10.0,SE,6.9,-,N/A,,Clear,130,2013-07-06 04:15:00
11:35 PM,69.8,57.2,64,30.00,10.0,ESE,6.9,-,N/A,,Clear,120,2013-07-06 04:35:00
11:55 PM,68.0,57.2,68,30.00,10.0,SE,6.9,-,N/A,,Clear,130,2013-07-06 04:55:00